EW5186 Weather Reports


time (UTC)temp
F
wind
direction
speed
knots
gust
knots
rain 1hr
in
rain 24hr
in
rain mn
in
humidity
%
barometer
mb
20260509074540 46 49 0.0 0.0 0.00 0.01 0.00 91 1014.5
20260509073045 46 49 0.0 0.0 0.00 0.01 0.00 91 1014.4
20260509071538 46 49 0.0 0.0 0.00 0.01 0.00 91 1014.4
20260509070037 46 49 0.0 0.0 0.00 0.01 0.00 90 1014.4
20260509064546 46 49 0.0 0.0 0.00 0.01 0.00 90 1014.6
20260509063036 46 49 0.0 0.0 0.00 0.01 0.00 90 1014.9
20260509061513 46 49 0.0 0.0 0.00 0.01 0.00 90 1014.9
20260509060004 46 49 0.0 0.0 0.00 0.01 0.00 89 1015.0
20260509054606 46 49 0.0 0.0 0.00 0.01 0.00 89 1014.9
20260509053052 47 49 0.0 0.0 0.00 0.01 0.00 88 1015.0
20260509051527 47 49 0.0 0.0 0.00 0.01 0.00 88 1015.0
20260509050028 47 49 0.0 0.0 0.00 0.01 0.00 87 1015.1
20260509044506 48 49 0.0 0.0 0.00 0.01 0.00 87 1015.2
20260509043005 47 49 0.0 0.0 0.00 0.01 0.00 86 1015.3
20260509041546 47 49 0.0 0.0 0.00 0.01 0.00 86 1015.3
20260509040044 46 49 0.0 0.0 0.00 0.01 0.01 85 1015.2
20260509034524 46 49 0.0 0.0 0.00 0.01 0.01 85 1015.2
20260509033023 46 49 0.0 0.0 0.00 0.01 0.01 85 1015.1
20260509031522 46 49 0.0 0.0 0.00 0.01 0.01 84 1014.9
20260509030012 45 49 0.0 0.9 0.00 0.01 0.01 83 1014.8
20260509024510 44 50 0.0 0.9 0.00 0.01 0.01 85 1014.6
20260509023008 42 281 0.0 0.0 0.00 0.01 0.01 86 1014.8
20260509021508 43 281 0.0 0.0 0.00 0.01 0.01 84 1014.6
20260509020006 44 280 0.0 0.0 0.00 0.01 0.01 83 1014.7
20260509014515 44 280 0.0 0.0 0.00 0.01 0.01 83 1014.6
20260509013008 45 281 0.0 0.0 0.00 0.01 0.01 82 1014.6
20260509011547 45 280 0.0 0.0 0.00 0.01 0.01 80 1014.4
20260509010046 46 281 0.0 0.0 0.00 0.01 0.01 80 1014.0
20260509004527 47 281 0.0 0.0 0.00 0.01 0.01 78 1013.5
20260509003027 48 281 0.0 0.0 0.00 0.01 0.01 76 1013.3
20260509001530 48 281 0.0 0.0 0.00 0.01 0.01 74 1013.4
20260509000025 50 281 0.0 0.0 0.00 0.01 0.01 72 1013.3
20260508234524 52 281 0.0 0.0 0.00 0.01 0.01 65 1013.1
20260508233024 54 281 0.0 0.9 0.00 0.01 0.01 62 1012.9
20260508231523 56 269 0.0 0.0 0.00 0.01 0.01 60 1012.7
20260508230022 57 281 0.0 4.3 0.00 0.01 0.01 55 1012.4
20260508224524 58 279 0.9 5.2 0.00 0.01 0.01 52 1012.1
20260508223024 59 258 0.9 6.1 0.00 0.01 0.01 53 1012.1
20260508221503 59 280 2.6 8.7 0.00 0.01 0.01 51 1012.3
20260508220011 60 25 0.9 7.8 0.00 0.01 0.01 52 1012.3
20260508214545 60 299 0.0 4.3 0.00 0.01 0.01 52 1012.4
20260508213051 60 340 0.0 5.2 0.00 0.01 0.01 52 1012.6
20260508211540 60 335 0.0 6.1 0.00 0.01 0.01 55 1012.3
20260508210035 59 232 1.7 7.0 0.00 0.01 0.01 56 1012.3
20260508204532 58 172 1.7 5.2 0.00 0.01 0.01 59 1012.4
20260508203029 57 276 0.0 6.1 0.00 0.01 0.01 63 1012.4
20260508201533 57 283 0.9 5.2 0.01 0.01 0.01 66 1012.7
20260508200028 54 293 0.0 2.6 0.01 0.01 0.01 72 1012.7
20260508194531 53 314 0.0 5.2 0.01 0.01 0.01 76 1012.8
20260508193028 53 98 0.0 10.4 0.01 0.01 0.01 75 1013.0
20260508191515 57 280 0.0 3.5 0.00 0.00 0.00 55 1012.4
20260508190012 58 248 0.0 4.3 0.00 0.00 0.00 53 1011.6
20260508184553 59 52 0.0 6.1 0.00 0.00 0.00 50 1011.5
20260508183049 59 310 0.9 8.7 0.00 0.00 0.00 48 1011.8
20260508181557 58 306 0.9 4.3 0.00 0.00 0.00 49 1012.1
20260508180041 58 357 1.7 9.6 0.00 0.00 0.00 46 1012.0
20260508174545 61 264 3.5 13.9 0.00 0.00 0.00 43 1011.7
20260508173036 59 320 2.6 10.4 0.00 0.00 0.00 47 1011.9
20260508171536 59 231 0.9 7.0 0.00 0.00 0.00 46 1012.0
20260508170035 60 231 1.7 8.7 0.00 0.00 0.00 43 1011.6
20260508164533 61 342 1.7 6.1 0.00 0.00 0.00 47 1011.8
20260508163038 62 342 1.7 7.0 0.00 0.00 0.00 47 1011.8
20260508161522 59 338 0.0 5.2 0.00 0.00 0.00 52 1011.9
20260508160015 59 255 0.9 5.2 0.00 0.00 0.00 47 1012.3
20260508154500 60 256 1.7 5.2 0.00 0.00 0.00 42 1012.3
20260508153103 61 233 0.0 5.2 0.00 0.00 0.00 48 1012.2
20260508153002 61 334 0.0 5.2 0.00 0.00 0.00 46 1012.2
20260508151602 60 339 0.9 4.3 0.00 0.00 0.00 49 1012.3
20260508150056 60 79 0.9 5.2 0.00 0.00 0.00 48 1012.4
20260508144557 59 211 0.9 3.5 0.00 0.00 0.00 48 1012.4
20260508143058 59 323 2.6 7.0 0.00 0.00 0.00 46 1012.6
20260508141557 58 277 1.7 5.2 0.00 0.00 0.00 51 1012.7
20260508140050 57 313 0.9 5.2 0.00 0.00 0.00 51 1012.7
20260508134558 57 346 0.9 4.3 0.00 0.00 0.00 51 1012.9
20260508133036 58 249 0.0 5.2 0.00 0.00 0.00 51 1013.1
20260508131535 57 332 0.0 3.5 0.00 0.00 0.00 55 1013.2
20260508130030 56 305 0.9 3.5 0.00 0.00 0.00 55 1013.3
20260508124529 55 58 0.0 3.5 0.00 0.00 0.00 57 1013.3
20260508123026 54 338 0.0 3.5 0.00 0.00 0.00 60 1013.3
20260508121534 54 324 0.9 4.3 0.00 0.00 0.00 60 1013.4
20260508120022 54 213 0.0 0.9 0.00 0.00 0.00 63 1013.3
20260508114519 53 293 0.0 2.6 0.00 0.00 0.00 63 1013.2
20260508113106 52 217 0.0 1.7 0.00 0.00 0.00 67 1013.1
20260508111558 50 101 0.0 1.7 0.00 0.00 0.00 65 1013.1
20260508110035 47 14 0.0 3.5 0.00 0.00 0.00 70 1013.1
20260508104534 45 250 0.0 0.0 0.00 0.00 0.00 73 1013.0
20260508103014 45 250 0.0 0.0 0.00 0.00 0.00 73 1012.9
20260508101512 45 250 0.0 0.0 0.00 0.00 0.00 73 1012.6
20260508100013 46 250 0.0 0.0 0.00 0.04 0.00 71 1012.3
20260508094509 46 250 0.0 0.0 0.00 0.04 0.00 70 1012.2
20260508093009 47 257 0.0 2.6 0.00 0.04 0.00 63 1012.2
20260508091509 47 106 0.0 0.9 0.00 0.04 0.00 62 1012.2
20260508090006 48 49 0.0 1.7 0.00 0.09 0.00 60 1012.4
20260508084507 48 310 0.0 2.6 0.00 0.09 0.00 61 1012.3
20260508083048 47 341 0.0 5.2 0.00 0.09 0.00 60 1012.2
20260508081608 47 208 0.0 1.7 0.00 0.09 0.00 63 1012.1
20260508080027 46 2 0.0 1.7 0.00 0.16 0.00 67 1012.0